Temp
80 81 79 71 60 59 56 63 73 69 71 76 79 75 69 69 66 56 72 75 77 77 78 81 81 82 82 82 82 82 83 83 82 83 83 83 83 83 83 83 82 83 83 84 83 83 84 83 83
79 82 74 66 57 52 57 69 68 70 74 78 77 75 70 63 71 68 70 77 78 77 76 78 81 82 82 82 83 82 83 83 83 83 83 83 83 83 83 83 83 83 84 84 84 84 84 84 83
81 83 66 61 56 53 57 71 70 74 79 77 73 76 72 65 71 72 75 78 78 75 76 78 82 82 82 83 83 82 83 83 83 83 83 83 84 84 84 84 84 84 84 84 84 84 84 84 83
76 72 68 59 58 61 63 70 73 74 76 76 73 66 74 78 75 75 78 78 75 75 77 81 83 83 83 83 83 83 83 83 83 83 84 83 84 84 84 84 84 84 84 84 84 84 84 84 84
73 68 58 57 57 64 69 75 75 72 73 73 74 67 67 75 77 77 77 77 74 74 76 79 83 83 83 83 83 83 84 83 83 83 84 84 84 84 84 84 84 84 84 84 84 83 84 84 84
66 66 57 55 58 65 70 77 75 72 72 72 69 68 65 75 75 76 77 75 76 75 76 79 82 83 83 83 83 83 83 83 83 84 84 84 84 84 84 84 84 84 84 84 84 83 83 83 84
65 62 58 59 58 62 67 79 72 71 71 71 75 63 66 71 75 76 74 75 75 75 75 75 77 81 83 83 83 83 83 83 83 83 83 84 84 84 84 84 84 84 84 84 84 84 83 83 84
70 65 59 61 58 58 68 74 76 72 70 79 78 63 63 70 72 74 75 72 72 73 74 73 73 75 76 78 83 83 83 84 83 83 84 84 84 84 84 82 84 84 85 85 84 84 83 83 83
76 61 56 59 59 60 67 73 78 80 74 77 79 74 74 75 75 73 71 71 71 74 72 72 72 73 74 76 81 82 83 84 83 82 83 80 75 76 78 82 84 85 85 85 84 84 84 84 83
68 59 61 66 69 64 69 73 73 74 73 71 72 76 77 76 74 70 70 69 69 70 71 72 72 73 74 80 75 74 78 76 75 75 74 73 73 74 79 80 84 84 84 84 84 84 84 82 77
72 64 67 68 68 70 69 73 77 72 67 71 67 70 74 73 72 70 71 71 70 72 73 72 72 72 73 73 72 73 73 73 73 74 73 73 73 73 73 71 73 75 81 76 79 78 77 77 76
66 72 71 70 68 69 65 72 73 75 73 77 75 75 74 72 72 72 72 73 71 71 73 72 73 72 72 72 72 72 73 74 73 73 73 71 71 72 71 70 72 72 72 75 73 74 76 76 76
67 70 71 70 71 70 70 67 72 74 77 79 78 76 74 74 74 75 75 74 73 71 73 72 73 72 72 72 72 72 72 72 73 73 73 72 71 70 71 70 69 69 71 72 73 74 75 75 76
73 72 69 68 68 71 70 66 69 73 78 77 76 75 75 75 75 72 74 72 72 73 73 73 73 72 73 72 72 72 71 72 72 72 73 73 71 71 71 71 71 70 70 73 73 73 74 74 76
72 65 68 64 65 69 72 66 66 76 77 75 75 75 75 78 76 73 75 74 74 74 73 74 73 73 73 73 73 72 73 72 70 71 73 74 72 70 70 70 70 72 73 73 74 73 74 72 76
65 63 57 61 66 67 68 57 67 77 76 73 75 75 77 77 75 76 78 75 75 74 73 74 81 75 72 72 72 71 73 72 71 71 72 74 73 72 69 71 72 72 73 73 74 73 74 72 71
59 54 58 59 65 66 64 59 65 72 77 73 74 75 75 74 74 76 78 77 76 74 73 74 76 74 73 72 71 72 72 69 70 72 72 73 74 73 72 72 72 72 72 73 75 73 73 72 71
52 54 59 58 61 65 63 59 64 69 73 75 76 75 73 72 73 77 77 78 76 74 75 74 74 73 73 73 72 72 70 71 71 71 72 73 74 74 72 72 72 71 72 73 74 74 72 71 71
64 58 58 61 63 61 60 60 61 65 70 73 70 71 71 72 76 79 78 78 76 75 73 72 72 71 71 70 69 69 72 70 71 72 74 74 75 74 72 72 72 71 72 73 75 73 73 71 69
62 59 59 58 63 60 58 60 63 64 66 68 69 73 72 73 75 75 76 76 75 75 74 72 72 71 71 70 70 70 71 71 72 73 73 73 74 75 75 73 70 72 72 75 75 73 72 72 68
59 57 59 58 61 62 60 57 58 64 66 68 68 75 75 74 72 73 74 74 76 74 73 72 71 71 71 71 70 70 70 70 71 72 72 74 75 76 76 74 72 72 71 72 73 74 73 70 69
55 67 63 60 56 51 61 46 54 60 62 65 67 68 73 73 74 74 74 73 75 76 76 73 71 71 71 71 71 71 69 68 70 71 72 74 75 75 76 75 73 71 69 72 73 76 73 72 69
59 68 63 62 56 55 54 48 52 59 59 63 64 68 72 75 75 74 74 75 76 77 76 74 71 70 70 70 70 70 68 68 70 70 72 72 73 75 76 75 74 72 71 73 73 74 73 72 70
68 61 59 56 53 46 53 52 53 55 63 67 66 67 72 74 75 76 77 76 75 76 76 74 71 70 70 69 70 70 70 69 69 70 70 71 71 73 75 75 74 73 73 73 73 73 73 73 70
60 49 44 43 45 45 54 52 54 65 69 72 70 68 71 76 75 74 73 74 73 74 75 74 72 70 70 70 69 70 70 70 70 70 70 70 70 71 73 74 73 73 74 74 73 73 73 73 72
56 50 48 40 41 47 55 49 58 71 73 76 77 75 75 76 76 75 74 74 74 75 74 75 71 70 70 70 70 70 70 69 70 70 70 70 72 73 74 74 74 74 75 74 74 72 73 73 72
59 53 62 50 49 48 50 56 63 69 70 71 75 75 73 75 76 74 75 75 74 75 74 74 71 70 70 70 70 70 70 70 70 71 71 71 72 75 74 75 74 74 75 74 73 71 73 72 72
62 66 53 49 42 40 48 49 51 60 63 65 68 72 73 75 75 75 75 75 75 76 76 76 74 72 72 71 71 72 71 71 71 70 71 72 73 73 74 74 74 74 74 74 73 72 73 73 72
57 53 54 53 51 45 43 49 62 63 65 64 68 71 73 74 73 74 76 76 76 76 75 75 73 71 71 71 71 72 72 72 72 72 72 73 73 73 73 72 73 74 74 73 73 72 73 73 72
57 56 55 50 49 49 52 55 63 62 64 64 65 67 71 74 75 74 74 75 72 73 74 74 73 73 74 72 71 71 72 73 72 72 72 73 73 73 73 73 73 73 74 73 72 73 75 73 73
MSLP
1009.63 1009.70 1009.93 1010.21 1010.72 1010.07 1009.65 1008.93 1008.21 1008.55 1008.99 1009.09 1010.13 1010.63 1011.82 1012.50 1013.11 1014.66 1014.54 1015.05 1015.19 1015.51 1015.56 1015.68 1015.69 1015.84 1015.91 1016.03 1016.03 1016.10 1016.18 1016.34 1016.53 1016.60 1016.66 1016.67 1016.61 1016.60 1016.63 1016.63 1016.80 1016.68 1016.69 1016.63 1016.66 1016.84 1016.78 1016.85 1016.92
1009.51 1009.67 1009.97 1009.92 1010.33 1010.44 1009.78 1008.95 1008.35 1008.37 1008.55 1008.97 1010.05 1010.71 1011.79 1013.13 1013.43 1014.30 1014.97 1015.23 1015.30 1015.56 1015.81 1016.00 1016.08 1016.10 1016.15 1016.29 1016.36 1016.44 1016.55 1016.67 1016.88 1016.93 1016.96 1017.03 1016.98 1016.89 1016.98 1016.98 1017.04 1016.93 1016.92 1016.93 1016.93 1016.98 1017.06 1017.10 1017.21
1009.41 1009.20 1009.76 1010.21 1010.93 1010.82 1010.01 1009.23 1008.48 1008.60 1008.68 1009.04 1010.47 1011.01 1012.25 1013.63 1014.16 1014.51 1014.79 1015.26 1015.57 1015.93 1016.09 1016.24 1016.36 1016.26 1016.39 1016.60 1016.58 1016.61 1016.84 1016.95 1017.16 1017.17 1017.21 1017.27 1017.18 1017.22 1017.33 1017.28 1017.21 1017.24 1017.35 1017.40 1017.35 1017.40 1017.64 1017.59 1017.60
1009.72 1009.83 1010.47 1010.89 1011.37 1011.01 1010.21 1009.41 1008.99 1008.63 1009.15 1009.58 1010.69 1012.13 1012.89 1013.65 1014.11 1014.58 1015.10 1015.37 1015.91 1016.10 1016.21 1016.22 1016.29 1016.41 1016.60 1016.79 1016.79 1016.85 1017.05 1017.20 1017.29 1017.41 1017.50 1017.52 1017.51 1017.56 1017.69 1017.51 1017.65 1017.78 1017.92 1017.84 1017.93 1017.86 1018.06 1017.99 1017.99
1010.27 1010.77 1011.22 1011.65 1011.74 1011.24 1010.25 1009.66 1009.60 1009.24 1009.57 1010.16 1010.68 1012.71 1013.55 1014.31 1014.43 1015.14 1015.52 1015.85 1016.07 1016.35 1016.41 1016.46 1016.53 1016.60 1016.82 1016.93 1017.12 1017.28 1017.44 1017.59 1017.54 1017.62 1017.74 1017.81 1017.83 1017.79 1017.78 1017.78 1017.94 1018.20 1018.25 1018.29 1018.33 1018.37 1018.33 1018.21 1018.10
1010.59 1010.88 1011.52 1012.00 1012.28 1011.44 1010.45 1009.81 1009.70 1009.77 1010.21 1011.02 1011.90 1012.75 1014.48 1014.75 1015.02 1015.61 1015.81 1016.16 1016.25 1016.49 1016.57 1016.65 1016.72 1016.86 1017.00 1017.18 1017.37 1017.57 1017.68 1017.91 1017.94 1017.90 1018.04 1018.09 1018.09 1018.07 1018.14 1018.25 1018.40 1018.47 1018.48 1018.59 1018.69 1018.79 1018.66 1018.60 1018.58
1011.05 1011.34 1011.87 1012.25 1012.49 1011.75 1010.99 1009.94 1010.13 1010.09 1010.49 1011.30 1011.79 1013.33 1015.09 1015.45 1015.58 1015.93 1016.22 1016.47 1016.53 1016.69 1016.87 1016.97 1017.13 1017.18 1017.27 1017.45 1017.63 1017.71 1017.94 1018.07 1018.07 1018.02 1018.14 1018.28 1018.37 1018.43 1018.49 1018.62 1018.66 1018.65 1018.72 1018.86 1019.01 1019.07 1019.07 1019.05 1019.11
1010.83 1011.15 1012.08 1012.47 1012.53 1012.04 1011.58 1010.45 1010.49 1010.51 1010.89 1011.47 1012.16 1013.62 1014.89 1015.55 1016.01 1016.39 1016.70 1016.97 1017.15 1017.20 1017.21 1017.40 1017.51 1017.62 1017.75 1017.76 1017.79 1018.02 1018.17 1018.23 1018.24 1018.33 1018.49 1018.47 1018.46 1018.54 1018.73 1018.90 1018.90 1018.89 1018.89 1019.00 1019.14 1019.28 1019.31 1019.34 1019.24
1010.44 1011.29 1012.16 1012.25 1012.51 1012.70 1011.65 1010.87 1010.72 1010.61 1011.26 1011.76 1011.97 1012.90 1014.23 1015.41 1016.25 1016.74 1017.21 1017.56 1017.71 1017.70 1017.68 1017.65 1017.88 1018.01 1018.08 1017.99 1017.95 1018.09 1018.33 1018.46 1018.43 1018.53 1018.54 1018.88 1019.03 1019.07 1019.04 1019.00 1019.06 1019.07 1019.16 1019.21 1019.29 1019.31 1019.36 1019.40 1019.53
1010.47 1011.11 1011.87 1011.95 1012.02 1012.16 1011.80 1011.10 1010.67 1011.14 1011.70 1012.39 1012.91 1013.79 1014.64 1015.51 1016.17 1016.71 1017.17 1017.52 1017.77 1017.84 1017.95 1017.95 1018.04 1018.15 1018.18 1018.12 1018.42 1018.60 1018.60 1018.81 1018.83 1019.01 1019.22 1019.41 1019.53 1019.50 1019.34 1019.33 1019.22 1019.27 1019.26 1019.29 1019.36 1019.45 1019.53 1019.67 1019.79
1009.95 1010.36 1011.36 1011.37 1011.52 1011.92 1011.97 1011.29 1010.97 1011.00 1012.07 1012.22 1012.92 1014.04 1014.95 1015.61 1016.28 1016.83 1017.27 1017.21 1017.39 1017.74 1017.99 1018.13 1018.19 1018.28 1018.40 1018.63 1018.81 1018.86 1019.01 1019.19 1019.26 1019.46 1019.59 1019.68 1019.83 1019.83 1019.94 1020.10 1019.94 1019.71 1019.47 1019.50 1019.48 1019.57 1019.67 1019.74 1019.83
1009.67 1009.93 1010.74 1010.60 1010.97 1012.18 1012.14 1011.78 1011.28 1011.03 1011.49 1012.16 1013.01 1013.77 1014.74 1015.56 1016.11 1016.55 1016.92 1017.17 1017.51 1017.78 1018.00 1018.23 1018.22 1018.51 1018.72 1018.91 1019.08 1019.15 1019.20 1019.38 1019.58 1019.64 1019.84 1019.99 1019.99 1020.09 1020.16 1020.28 1020.27 1020.21 1020.14 1019.97 1019.86 1019.81 1019.69 1019.57 1019.47
1009.60 1010.13 1010.55 1010.77 1010.84 1011.95 1012.17 1011.66 1011.41 1011.26 1011.55 1012.41 1013.28 1014.16 1014.87 1015.50 1016.03 1016.47 1016.74 1017.20 1017.59 1017.78 1018.04 1018.22 1018.29 1018.57 1018.72 1019.01 1019.25 1019.37 1019.44 1019.57 1019.65 1019.77 1019.94 1020.11 1020.15 1020.21 1020.19 1020.54 1020.55 1020.57 1020.26 1019.96 1019.69 1019.73 1019.70 1019.43 1019.28
1009.85 1010.40 1011.17 1011.27 1011.46 1011.71 1011.70 1012.06 1012.33 1011.75 1011.81 1012.74 1013.41 1014.04 1014.66 1015.22 1015.71 1016.35 1016.73 1017.21 1017.52 1017.65 1017.79 1018.11 1018.27 1018.49 1018.61 1018.98 1019.17 1019.44 1019.61 1019.81 1019.88 1019.90 1020.01 1020.05 1020.23 1020.29 1020.52 1020.47 1020.38 1020.44 1020.45 1020.03 1019.75 1019.80 1019.83 1019.58 1019.50
1010.31 1010.99 1011.39 1011.70 1011.81 1011.58 1011.72 1012.26 1012.17 1011.51 1011.82 1012.66 1013.34 1013.89 1014.48 1015.03 1015.62 1015.98 1016.18 1016.77 1017.12 1017.32 1017.69 1017.93 1018.17 1018.44 1018.60 1018.82 1019.10 1019.37 1019.56 1019.84 1020.14 1020.15 1020.08 1020.02 1020.23 1020.50 1020.61 1020.57 1020.37 1020.35 1020.11 1019.95 1019.90 1019.94 1019.89 1020.12 1020.01
1010.61 1011.25 1011.99 1012.61 1012.26 1012.55 1012.21 1012.64 1012.69 1011.71 1011.89 1012.73 1013.44 1013.91 1014.32 1014.84 1015.22 1015.67 1016.05 1016.61 1016.98 1017.34 1017.73 1017.88 1018.17 1018.40 1018.62 1018.86 1019.10 1019.33 1019.57 1019.91 1020.25 1020.14 1019.97 1020.04 1020.31 1020.50 1020.76 1020.63 1020.49 1020.26 1020.09 1019.92 1019.76 1019.90 1020.07 1020.19 1020.47
1011.31 1011.72 1012.08 1012.84 1012.77 1012.82 1012.84 1013.43 1013.29 1012.40 1012.19 1012.69 1013.26 1013.73 1014.28 1014.93 1015.41 1015.77 1016.03 1016.37 1016.78 1017.20 1017.63 1017.91 1018.13 1018.44 1018.67 1018.67 1018.99 1019.28 1019.53 1020.07 1020.45 1020.12 1020.12 1020.33 1020.43 1020.58 1020.59 1020.34 1020.61 1020.48 1020.36 1020.07 1019.99 1020.17 1020.17 1020.45 1020.45
1011.48 1011.91 1012.42 1012.74 1013.15 1013.14 1013.27 1013.66 1013.37 1013.13 1012.58 1012.59 1012.94 1013.57 1014.23 1014.72 1014.75 1015.16 1015.85 1016.22 1016.65 1017.17 1017.51 1017.93 1018.19 1018.51 1018.51 1018.52 1019.07 1019.51 1019.99 1020.09 1020.33 1020.37 1020.30 1020.41 1020.56 1020.51 1020.33 1020.57 1020.61 1020.79 1020.65 1020.29 1020.14 1020.36 1020.50 1020.58 1020.73
1010.87 1011.48 1012.30 1012.72 1013.27 1013.64 1013.68 1013.80 1013.68 1013.15 1012.55 1012.53 1012.88 1013.34 1013.95 1014.23 1014.52 1015.04 1015.80 1016.18 1016.67 1017.06 1017.57 1017.86 1018.19 1018.56 1018.53 1018.88 1019.55 1019.97 1020.15 1020.25 1020.41 1020.43 1020.38 1020.47 1020.32 1020.56 1020.68 1020.67 1020.77 1020.92 1020.73 1020.47 1020.27 1020.42 1020.58 1021.03 1020.95
1010.67 1011.53 1012.49 1013.77 1013.83 1014.07 1014.02 1013.93 1013.77 1013.45 1012.84 1012.64 1012.83 1013.03 1013.49 1014.25 1014.65 1015.01 1015.71 1016.19 1016.50 1016.74 1017.28 1017.73 1017.95 1018.34 1018.55 1018.73 1019.21 1019.43 1019.84 1020.05 1020.12 1020.20 1020.57 1020.73 1020.55 1020.51 1020.65 1020.85 1021.05 1021.04 1020.92 1020.52 1020.40 1020.60 1020.92 1021.29 1021.25
1010.37 1011.33 1012.11 1013.00 1013.53 1014.01 1014.09 1014.13 1014.01 1013.62 1013.20 1013.02 1012.84 1012.76 1013.09 1013.59 1014.30 1015.01 1015.60 1015.92 1016.35 1016.76 1017.03 1017.48 1017.77 1018.16 1018.57 1018.61 1019.05 1019.50 1019.99 1020.14 1020.48 1020.45 1020.49 1020.51 1020.55 1020.81 1020.61 1020.78 1021.01 1021.07 1021.11 1020.98 1020.99 1021.00 1021.13 1021.47 1021.53
1011.18 1011.36 1012.13 1012.77 1013.21 1014.37 1014.14 1014.37 1013.61 1013.38 1013.29 1013.07 1012.87 1012.80 1012.97 1013.38 1013.94 1014.58 1015.38 1015.87 1016.14 1016.32 1016.81 1017.27 1017.61 1017.96 1018.59 1018.65 1018.78 1019.37 1019.99 1020.44 1020.51 1020.42 1020.37 1020.43 1020.59 1020.71 1020.66 1020.84 1021.19 1021.23 1021.39 1021.29 1021.16 1020.99 1021.25 1021.25 1021.49
1010.78 1011.31 1012.31 1012.82 1013.55 1014.38 1014.37 1014.79 1012.70 1012.65 1012.85 1012.43 1012.57 1012.67 1012.66 1013.03 1013.71 1014.15 1014.70 1015.14 1015.73 1016.08 1016.55 1017.10 1017.63 1017.96 1018.36 1018.76 1018.81 1019.33 1019.99 1020.21 1020.38 1020.53 1020.68 1020.81 1020.78 1020.72 1020.77 1020.85 1021.12 1021.30 1021.39 1021.30 1021.33 1021.48 1021.40 1021.25 1021.41
1010.73 1011.78 1012.80 1013.88 1014.68 1014.81 1013.84 1013.95 1012.31 1011.86 1011.22 1011.23 1011.71 1012.05 1012.22 1012.61 1013.23 1013.83 1014.24 1014.99 1015.65 1016.09 1016.65 1017.09 1017.77 1018.11 1018.18 1018.59 1018.95 1019.21 1019.72 1020.20 1020.46 1020.60 1020.79 1020.79 1020.80 1020.71 1020.55 1020.73 1020.92 1021.07 1021.32 1021.31 1021.53 1021.66 1021.60 1021.45 1021.53
1010.72 1011.73 1013.64 1014.61 1015.08 1014.57 1013.75 1013.37 1011.44 1010.25 1009.67 1009.65 1010.40 1011.15 1011.49 1011.81 1012.57 1013.59 1014.40 1014.88 1015.50 1015.98 1016.43 1017.09 1017.54 1018.11 1018.30 1018.48 1018.78 1019.11 1019.49 1019.85 1020.13 1020.43 1020.65 1020.77 1020.82 1020.71 1020.66 1020.58 1020.86 1020.94 1021.06 1021.34 1021.55 1021.56 1021.50 1021.49 1021.64
1010.37 1010.76 1011.55 1013.38 1014.64 1014.30 1013.69 1012.75 1010.48 1009.27 1008.86 1008.86 1008.88 1009.73 1010.53 1011.08 1011.89 1012.68 1013.45 1014.14 1014.90 1015.51 1016.14 1016.73 1017.29 1017.75 1018.17 1018.41 1018.64 1018.89 1019.33 1019.62 1019.90 1020.03 1020.34 1020.46 1020.41 1020.31 1020.21 1020.34 1020.54 1020.77 1020.95 1021.11 1021.30 1021.42 1021.49 1021.58 1021.66
1009.30 1009.81 1009.91 1012.06 1013.43 1013.58 1013.39 1012.28 1009.83 1008.66 1008.33 1008.37 1008.39 1009.13 1009.56 1010.08 1010.98 1011.82 1012.88 1013.51 1014.39 1014.95 1015.66 1016.21 1016.89 1017.48 1017.79 1018.21 1018.49 1018.66 1018.94 1019.41 1019.73 1019.84 1020.15 1020.19 1020.12 1020.06 1020.13 1020.19 1020.29 1020.48 1020.67 1020.80 1021.05 1021.45 1021.46 1021.55 1021.71
1007.80 1008.31 1009.90 1011.29 1012.70 1013.11 1012.98 1011.77 1010.41 1008.65 1008.44 1008.04 1007.62 1008.01 1008.63 1009.14 1010.11 1011.10 1012.09 1012.85 1013.69 1014.29 1015.14 1015.80 1016.39 1016.73 1017.23 1017.85 1018.30 1018.50 1018.59 1018.93 1019.17 1019.55 1019.74 1019.86 1019.87 1019.94 1019.93 1020.11 1020.17 1020.28 1020.48 1020.62 1020.87 1021.24 1021.37 1021.39 1021.55
1008.07 1008.34 1009.49 1010.45 1011.22 1011.67 1011.97 1011.01 1007.65 1007.62 1008.21 1008.13 1007.99 1008.06 1008.27 1008.73 1009.40 1010.53 1011.37 1012.29 1012.98 1013.87 1014.72 1015.35 1016.16 1016.56 1017.01 1017.58 1017.92 1018.33 1018.50 1018.57 1018.91 1019.18 1019.31 1019.41 1019.46 1019.67 1019.77 1019.87 1019.98 1020.27 1020.47 1020.47 1020.77 1020.93 1021.13 1021.39 1021.52
1008.57 1008.73 1009.43 1010.49 1011.17 1011.15 1010.50 1009.32 1008.10 1008.39 1008.79 1009.00 1009.02 1008.94 1009.04 1009.23 1009.36 1010.27 1011.04 1012.09 1012.91 1013.61 1014.36 1014.94 1015.67 1016.18 1016.43 1016.97 1017.61 1018.03 1018.45 1018.49 1018.55 1018.79 1018.96 1019.11 1019.21 1019.13 1019.24 1019.50 1019.79 1020.01 1020.25 1020.45 1020.67 1020.79 1020.85 1021.10 1021.20
Wind_Speed
4 3 1 1 2 4 2 3 3 9 9 7 15 6 6 6 3 5 8 8 10 6 6 7 11 12 12 12 12 14 13 13 13 13 13 13 12 11 11 12 12 12 14 15 15 14 15 14 12
3 5 1 2 5 4 3 3 11 5 4 18 8 8 7 5 5 12 8 11 9 8 5 5 11 12 12 12 13 14 13 13 13 13 13 11 12 12 11 10 10 11 12 13 15 14 12 12 11
4 3 2 4 3 2 3 0 12 11 8 10 6 8 5 4 10 10 12 13 10 6 6 7 12 13 13 12 12 13 14 13 14 13 12 10 11 11 11 10 10 11 11 11 14 13 12 13 14
3 5 4 4 5 4 4 5 3 9 8 7 16 11 6 9 6 7 15 13 10 6 5 11 13 12 12 11 12 13 13 12 13 13 12 12 9 9 9 9 10 9 10 9 10 12 11 11 10
3 0 4 4 3 5 5 8 5 5 4 9 6 7 5 4 15 17 14 12 11 6 5 7 12 13 13 12 12 13 13 13 13 12 11 10 9 8 8 8 9 8 8 8 9 9 10 11 8
3 2 3 3 1 5 4 5 11 13 13 13 12 9 4 16 17 12 12 11 8 8 6 6 11 12 13 12 11 13 12 11 11 11 10 9 9 9 8 8 8 7 8 7 7 7 8 9 11
0 2 2 3 3 3 3 2 4 14 14 8 9 7 7 11 12 11 10 8 6 6 6 5 4 8 13 12 11 12 12 11 10 9 9 9 9 8 8 8 7 7 7 7 7 6 6 7 7
2 3 2 1 2 2 7 3 7 12 7 13 11 6 11 7 9 10 9 6 6 4 5 5 4 5 5 5 11 11 11 11 9 9 9 10 8 7 7 7 5 6 6 6 6 6 6 8 9
1 3 2 3 5 2 10 5 4 5 15 6 1 11 14 16 14 11 9 6 4 4 4 5 5 5 4 4 6 11 11 10 9 7 9 6 4 4 4 3 6 6 6 5 5 5 5 6 7
3 3 4 4 6 6 11 5 9 9 9 14 18 13 19 18 15 14 12 11 6 6 4 4 5 5 5 3 5 3 4 3 2 3 4 3 3 2 3 6 7 7 6 6 5 6 4 5 2
4 3 9 10 14 3 5 4 6 18 10 19 22 20 19 18 13 12 10 12 11 8 4 5 5 5 4 4 3 2 2 2 1 3 3 3 3 3 3 3 3 4 6 3 4 4 2 2 1
3 2 15 10 14 6 8 4 11 13 8 19 21 23 20 17 13 12 12 12 11 9 6 6 6 5 3 3 2 2 2 2 2 1 1 2 0 2 2 2 4 3 3 4 3 3 4 5 4
2 5 6 4 7 9 11 11 10 11 17 18 20 19 18 15 14 10 9 8 8 9 8 7 6 6 5 5 3 2 2 1 2 2 2 3 1 1 1 2 3 3 4 3 3 3 3 3 3
3 9 6 5 1 5 12 10 5 8 17 18 21 19 17 16 14 9 10 8 9 7 10 7 7 6 6 5 5 4 2 2 2 2 3 3 3 1 3 2 2 2 2 4 2 2 3 4 2
5 5 2 8 6 4 4 12 2 8 21 20 20 16 13 14 12 13 13 12 10 7 7 9 7 6 6 6 5 4 3 4 3 2 4 5 3 3 2 1 2 3 3 2 1 1 3 3 3
3 2 2 3 5 3 1 2 4 13 18 19 18 15 13 15 17 13 12 9 7 6 8 7 8 7 6 5 5 4 3 4 3 2 3 5 5 4 2 2 1 3 4 3 2 1 2 3 3
6 2 3 3 3 4 2 5 8 8 11 17 16 17 15 13 11 10 12 10 9 7 8 7 7 7 7 6 5 4 4 3 3 3 2 6 3 4 5 3 3 4 3 3 3 4 2 1 2
4 3 1 1 4 2 1 5 6 13 6 16 19 18 15 15 17 15 13 11 9 8 9 7 6 7 6 4 4 3 3 2 4 1 3 5 4 4 2 3 4 4 2 4 3 3 3 1 1
3 3 3 4 8 4 2 2 4 8 4 8 11 15 15 18 15 13 12 12 10 8 7 8 8 7 5 3 4 2 3 2 1 3 3 5 5 3 2 2 3 3 2 2 2 2 3 4 2
2 0 5 6 5 3 1 4 2 3 4 1 10 17 17 15 14 12 12 12 12 12 10 7 8 7 4 4 3 3 3 1 1 2 3 3 3 3 3 3 1 2 2 5 6 5 2 3 4
4 4 8 7 3 4 3 1 5 4 2 3 2 18 17 19 17 14 14 13 12 12 11 9 8 8 5 6 4 4 4 3 2 1 1 2 3 2 2 3 3 2 3 4 4 4 4 2 3
6 4 8 11 11 3 2 4 6 9 6 5 6 6 16 15 16 16 15 13 14 13 9 8 8 9 6 6 5 6 4 4 3 3 1 3 3 3 3 2 3 3 2 4 3 2 1 2 1
2 8 8 5 6 3 2 1 6 14 14 11 8 8 11 17 17 19 18 17 15 12 11 9 7 7 7 6 7 5 4 2 2 2 2 2 2 4 5 4 3 4 2 2 4 4 4 2 2
18 18 12 7 3 2 5 6 4 6 23 15 6 8 9 17 16 17 16 13 11 9 9 9 8 6 7 7 6 8 8 6 4 2 3 3 2 2 3 4 2 4 3 2 2 1 2 3 3
6 6 4 5 3 3 3 4 8 6 10 20 13 11 11 17 17 15 14 14 12 12 12 9 10 8 7 9 7 7 7 7 7 6 4 4 2 3 5 4 4 3 4 4 3 2 2 2 2
9 6 6 7 6 4 3 3 6 4 4 18 19 17 14 17 18 18 18 16 15 15 13 12 11 8 7 7 9 7 7 4 4 5 4 4 4 4 3 5 5 5 5 4 4 1 1 2 1
7 5 4 8 3 2 2 6 10 12 15 11 21 15 19 19 20 19 17 16 15 15 14 13 11 7 8 7 6 7 7 7 6 6 5 4 5 4 5 6 6 5 4 4 3 3 3 2 1
6 7 3 2 6 4 2 0 9 7 8 7 17 21 20 20 20 19 16 16 15 15 14 13 12 13 9 7 6 5 6 7 6 5 6 6 5 4 6 7 6 6 5 5 4 3 3 1 2
3 1 6 5 4 5 5 7 13 4 8 7 9 13 17 20 19 17 16 15 15 13 13 13 11 10 9 8 7 6 6 6 6 6 6 7 4 6 6 7 7 6 6 5 4 5 5 4 3
1 4 4 5 4 2 3 6 6 11 8 8 4 6 8 13 17 15 15 13 11 13 12 13 12 11 11 9 6 6 5 5 6 6 6 6 6 5 6 6 6 6 6 5 6 6 4 5 5
Wind_Direction
207 230 142 146 64 64 56 351 111 117 137 148 157 129 106 63 138 171 133 143 132 133 138 137 135 133 128 124 126 121 123 122 117 120 111 115 110 111 111 109 109 111 110 107 105 98 97 99 104
241 212 172 251 73 54 28 353 123 104 138 112 85 91 49 63 52 111 111 142 136 134 129 131 135 130 128 132 126 126 123 125 117 117 118 115 115 107 105 106 102 102 99 103 95 92 92 88 104
259 12 61 45 55 82 128 72 118 116 125 111 108 52 77 88 108 127 130 134 129 116 126 146 134 128 129 132 128 126 126 125 122 119 127 116 114 108 108 105 97 92 98 98 99 94 93 90 90
355 6 31 61 11 38 354 137 120 108 70 57 109 80 81 116 118 132 134 131 123 126 136 140 134 121 123 130 133 126 125 121 124 123 120 115 106 103 98 96 92 89 91 99 100 93 87 87 90
28 208 64 65 10 317 346 121 144 73 71 99 117 97 66 66 114 131 133 133 135 138 143 139 136 131 127 133 136 131 130 134 142 134 115 117 120 121 107 117 97 99 98 106 95 86 78 64 86
4 355 68 111 114 281 300 187 115 99 102 101 90 101 65 127 130 141 136 137 140 133 122 124 133 130 129 130 135 129 130 124 115 118 125 125 109 111 103 94 94 98 102 98 91 83 77 68 76
31 58 42 114 40 67 294 150 117 118 115 91 122 94 114 138 138 135 131 126 124 121 116 119 126 139 129 129 134 132 134 131 126 123 120 119 110 103 100 92 88 85 83 81 75 71 65 54 67
242 113 87 131 102 107 278 329 118 119 92 103 133 144 153 151 125 121 120 102 102 114 119 129 120 93 94 117 132 136 136 135 138 138 128 123 114 94 79 51 69 71 72 73 61 57 51 49 37
95 77 154 182 138 195 283 145 131 84 122 125 94 136 134 131 136 126 117 103 97 129 139 128 125 119 120 128 138 132 143 145 153 145 129 86 62 63 73 69 68 63 54 49 39 37 33 47 49
153 113 147 258 180 199 214 217 128 125 128 109 107 114 132 142 145 148 151 149 160 165 167 143 140 145 145 124 101 104 119 100 141 102 79 69 54 22 52 31 51 40 23 10 356 340 343 21 21
174 185 146 229 245 162 236 129 134 145 136 149 145 145 147 151 157 153 157 162 171 168 169 161 149 154 142 112 124 109 114 126 42 67 78 36 33 10 47 39 357 346 339 341 329 333 326 338 325
131 86 176 196 215 185 234 134 167 165 165 151 147 153 153 158 157 159 165 170 161 163 175 168 160 148 150 128 144 146 138 138 139 170 77 109 68 31 12 35 8 1 340 316 313 317 307 306 293
122 109 72 151 202 203 199 179 187 202 147 151 144 152 157 159 168 163 163 159 155 165 156 177 161 167 166 148 151 161 166 206 171 149 163 120 191 10 1 47 29 9 345 341 352 354 318 307 300
123 97 112 74 97 170 172 127 241 160 145 150 153 165 165 165 162 141 157 155 171 170 163 171 169 174 156 158 174 185 195 158 168 148 155 159 161 224 35 6 15 347 309 331 333 353 59 359 21
122 103 76 21 5 74 350 154 88 152 154 159 163 170 164 165 156 168 172 166 173 172 159 166 162 164 162 181 178 174 191 136 155 175 191 206 177 100 28 14 16 324 329 323 179 49 80 77 29
78 84 90 338 350 26 285 100 248 169 160 164 165 168 156 174 176 175 169 164 159 155 162 162 164 163 180 184 186 182 177 156 141 204 162 152 143 127 165 218 28 359 5 4 36 36 48 44 80
16 75 60 106 328 74 321 160 212 292 186 170 173 172 173 162 177 181 167 171 170 164 160 163 144 148 149 163 160 168 149 142 146 176 140 116 118 178 211 89 46 6 1 24 41 50 101 112 348
169 157 108 60 211 151 165 140 165 232 234 176 179 174 169 169 185 181 171 182 169 169 170 153 148 148 134 121 113 98 104 139 147 216 165 157 164 186 45 61 42 19 308 33 26 38 56 115 164
141 114 86 7 12 359 80 137 145 232 252 164 150 160 170 179 180 176 170 175 171 172 158 163 156 156 135 108 113 113 172 153 158 193 197 186 143 151 82 64 56 354 360 38 37 76 92 35 313
103 22 125 62 310 348 61 217 105 211 253 353 150 169 173 169 174 167 172 176 180 179 175 170 164 155 150 131 145 135 136 172 139 140 185 164 133 146 131 109 103 344 3 43 32 34 76 65 5
2 263 163 130 135 225 210 258 220 234 286 240 180 179 170 173 173 176 177 180 179 187 180 171 169 154 155 133 114 86 71 54 56 251 191 163 167 217 257 121 138 44 34 45 34 35 47 152 15
224 173 133 137 114 264 23 273 207 217 216 208 198 172 177 186 175 171 177 178 186 193 183 163 167 154 159 160 129 135 158 151 195 192 180 158 170 187 217 150 146 97 68 52 41 18 37 130 196
203 160 148 113 69 187 172 24 266 176 231 227 203 201 179 179 179 180 182 183 187 182 183 165 167 154 149 167 153 140 139 147 142 145 190 184 190 209 183 183 151 104 89 63 56 14 35 21 101
133 92 66 56 48 272 204 182 267 192 207 222 171 187 177 180 185 191 182 172 172 176 172 165 165 179 159 163 167 155 157 161 139 179 208 209 196 221 197 200 193 135 128 104 83 349 49 62 57
80 79 99 50 14 257 327 169 261 223 220 210 190 186 184 182 181 177 176 172 171 179 174 170 175 181 182 166 175 168 171 166 179 189 208 197 192 214 226 191 194 182 172 161 152 132 72 22 101
186 161 153 157 182 230 85 263 265 180 215 204 211 191 172 175 184 181 180 175 176 178 182 176 182 183 183 174 182 178 183 188 200 191 186 210 205 203 200 220 205 208 188 179 149 120 25 8 88
213 199 169 98 0 121 281 284 277 239 234 210 215 195 177 176 180 183 180 178 176 180 182 183 175 187 179 196 179 184 177 180 196 197 195 203 206 223 219 214 204 212 200 181 161 157 179 178 153
173 159 99 31 150 152 248 103 254 229 211 227 196 198 185 172 174 181 180 180 183 181 181 179 184 190 183 175 189 198 191 190 189 180 199 209 228 216 222 201 201 203 216 202 181 168 211 148 181
315 230 56 118 139 155 167 241 230 187 201 192 208 201 184 174 166 174 179 183 183 173 175 176 176 173 179 181 179 193 201 194 188 191 201 210 212 229 217 199 185 197 211 211 202 201 196 214 202
211 121 129 137 219 202 153 273 11 83 84 87 64 167 189 185 165 165 169 174 164 174 172 178 176 180 189 179 170 186 203 198 184 194 200 196 203 213 207 185 183 196 210 210 211 206 209 227 231